Weather History for Sanford, NC

Change the Weather History Date:

Tuesday, March 19, 2013

  Actual Average (KRDU) Record (KRDU)
Temperature  
Mean Temperature 54 °F 52 °F  
Max Temperature 67 °F 64 °F 88 °F (1945)
Min Temperature 41 °F 41 °F 19 °F (1967)
Degree Days  
Heating Degree Days 11 13  
Month to date heating degree days 292  
Since 1 July heating degree days 2864  
Cooling Degree Days 0 0  
Month to date cooling degree days 0  
Year to date cooling degree days 1  
Growing Degree Days 4 (Base 50)    
Moisture  
Dew Point 33 °F    
Average Humidity 59    
Maximum Humidity 97    
Minimum Humidity 15    
Precipitation  
Precipitation 0.01 in 0.13 in 1.72 in (1998)
Month to date precipitation 2.56  
Year to date precipitation 9.29  
Snow  
Snow 0.00 in 0.00 in 0.50 in (1893)
Month to date snowfall 0.4  
Since 1 July snowfall 5.9  
Snow Depth -    
Sea Level Pressure  
Sea Level Pressure 29.89 in    
Wind  
Wind Speed 4 mph (WNW)    
Max Wind Speed 15 mph    
Max Gust Speed 25 mph    
Visibility 8 miles    
Events Rain    
T = Trace of Precipitation, MM = Missing Value Source: NWS Daily Summary

Daily Weather History Graph

Daily Weather History Graph

Search for Another Location

Airport:

Trip Planner

Search our weather history database for the weather conditions in past years. The results will help you decide how hot, cold, wet, or windy it might be!

Date:

Astronomy

Mar. 19, 2013 Rise Set
Actual Time 7:21 AM EDT 7:27 PM EDT
Civil Twilight 6:55 AM EDT 7:52 PM EDT
Nautical Twilight 6:26 AM EDT 8:22 PM EDT
Astronomical Twilight 5:56 AM EDT 8:52 PM EDT
Moon 12:21 PM EDT (3/19) 2:01 AM EDT (3/19)
Length of Visible Light 12h 57m
Length of Day
12h 06m
Waxing Crescent, 49% of the Moon is Illuminated
Mar 19
Waxing Crescent
Mar 19
First Quarter
Mar 27
Full
Apr 3
Last Quarter
Apr 10
New

Hourly Weather History & Observations

Time (EDT) Temp. Windchill Dew Point Humidity Pressure Visibility Wind Dir Wind Speed Gust Speed Precip Events Conditions
12:15 AM 41.4 °F - 40.3 °F 96% 29.86 in 10.0 mi Calm Calm - 0.01 in Rain Rain
12:35 AM 42.1 °F - 41.0 °F 96% 29.87 in 10.0 mi Calm Calm - 0.01 in   Overcast
12:55 AM 42.4 °F - 41.4 °F 96% 29.85 in 10.0 mi Calm Calm - 0.01 in Rain Light Rain
1:15 AM 42.1 °F - 41.0 °F 96% 29.85 in 10.0 mi Calm Calm - N/A   Scattered Clouds
1:35 AM 42.3 °F 40.5 °F 41.2 °F 96% 29.86 in 10.0 mi NW 3.5 mph - N/A   Mostly Cloudy
2:15 AM 43.0 °F 38.8 °F 42.1 °F 97% 29.86 in 5.0 mi North 6.9 mph - N/A   Overcast
2:35 AM 43.2 °F 40.5 °F 42.1 °F 96% 29.85 in 10.0 mi North 4.6 mph - N/A   Overcast
2:55 AM 43.2 °F - 42.1 °F 96% 29.85 in 10.0 mi Calm Calm - N/A   Overcast
3:15 AM 43.0 °F - 41.9 °F 96% 29.83 in 10.0 mi Calm Calm - N/A   Overcast
3:35 AM 43.2 °F - 42.1 °F 96% 29.84 in 10.0 mi Calm Calm - N/A   Overcast
3:55 AM 43.0 °F 40.3 °F 41.9 °F 96% 29.83 in 10.0 mi NW 4.6 mph - N/A   Overcast
4:15 AM 42.8 °F - 41.9 °F 97% 29.83 in 10.0 mi Calm Calm - N/A   Overcast
4:35 AM 42.8 °F - 41.9 °F 97% 29.82 in 7.0 mi Calm Calm - N/A   Overcast
4:55 AM 43.0 °F 41.3 °F 41.9 °F 96% 29.83 in 5.0 mi West 3.5 mph - N/A   Overcast
5:15 AM 42.8 °F - 41.9 °F 97% 29.84 in 5.0 mi Calm Calm - N/A   Overcast
5:35 AM 42.8 °F 41.1 °F 41.7 °F 96% 29.84 in 2.5 mi NW 3.5 mph - N/A   Overcast
6:15 AM 43.0 °F - 42.1 °F 97% 29.84 in 3.0 mi Calm Calm - N/A   Overcast
6:35 AM 43.0 °F - 42.1 °F 97% 29.85 in 4.0 mi Calm Calm - N/A   Overcast
6:55 AM 43.0 °F - 42.1 °F 97% 29.84 in 2.5 mi Calm Calm - N/A   Overcast
7:15 AM 43.0 °F - 42.1 °F 97% 29.84 in 2.5 mi Calm Calm - N/A   Overcast
7:35 AM 43.0 °F - 42.1 °F 97% 29.83 in 2.0 mi Calm Calm - N/A   Overcast
7:55 AM 43.2 °F 41.5 °F 42.3 °F 97% 29.84 in 1.0 mi SSW 3.5 mph - N/A   Overcast
8:15 AM 43.5 °F 41.9 °F 42.8 °F 97% 29.86 in 1.5 mi WSW 3.5 mph - N/A   Overcast
8:35 AM 43.7 °F 40.3 °F 43.0 °F 97% 29.87 in 2.5 mi WSW 5.8 mph - N/A   Overcast
9:15 AM 44.6 °F 40.7 °F 43.3 °F 95% 29.89 in 4.0 mi West 6.9 mph - N/A   Overcast
10:15 AM 45.9 °F 42.9 °F 43.9 °F 93% 29.91 in 5.0 mi WSW 5.8 mph - N/A   Overcast
10:35 AM 47.7 °F - 45.0 °F 90% 29.91 in 10.0 mi WSW 6.9 mph - N/A   Mostly Cloudy
10:55 AM 48.9 °F - 45.1 °F 87% 29.91 in 10.0 mi West 5.8 mph - N/A   Scattered Clouds
11:15 AM 51.1 °F - 46.0 °F 83% 29.91 in 10.0 mi West 6.9 mph - N/A   Scattered Clouds
12:15 PM 58.1 °F - 42.6 °F 56% 29.90 in 10.0 mi West 10.4 mph - N/A   Clear
12:35 PM 59.4 °F - 40.1 °F 49% 29.89 in 10.0 mi West 6.9 mph - N/A   Clear
12:55 PM 60.8 °F - 37.2 °F 42% 29.89 in 10.0 mi West 10.4 mph - N/A   Clear
1:15 PM 61.0 °F - 32.7 °F 35% 29.89 in 10.0 mi WNW 9.2 mph 17.3 mph N/A   Clear
1:35 PM 61.7 °F - 34.0 °F 35% 29.89 in 10.0 mi West 11.5 mph 17.3 mph N/A   Clear
2:15 PM 62.6 °F - 32.2 °F 32% 29.88 in 10.0 mi West 15.0 mph 19.6 mph N/A   Clear
2:35 PM 63.5 °F - 32.5 °F 31% 29.88 in 10.0 mi West 10.4 mph 19.6 mph N/A   Clear
2:55 PM 64.9 °F - 33.6 °F 31% 29.87 in 10.0 mi WSW 11.5 mph - N/A   Clear
3:15 PM 65.3 °F - 31.5 °F 28% 29.87 in 10.0 mi West 12.7 mph 18.4 mph N/A   Clear
3:35 PM 65.7 °F - 29.8 °F 26% 29.86 in 10.0 mi West 9.2 mph 17.3 mph N/A   Clear
3:55 PM 66.6 °F - 28.0 °F 24% 29.86 in 10.0 mi West 10.4 mph 17.3 mph N/A   Clear
4:15 PM 67.8 °F - 25.2 °F 20% 29.87 in 10.0 mi WNW 13.8 mph 18.4 mph N/A   Clear
4:35 PM 67.5 °F - 23.5 °F 19% 29.87 in 10.0 mi West 12.7 mph 23.0 mph N/A   Clear
5:15 PM 67.3 °F - 21.4 °F 17% 29.88 in 10.0 mi West 12.7 mph 24.2 mph N/A   Clear
5:35 PM 67.1 °F - 21.4 °F 18% 29.88 in 10.0 mi NW 10.4 mph 19.6 mph N/A   Clear
5:55 PM 66.7 °F - 22.3 °F 18% 29.88 in 10.0 mi WNW 12.7 mph 17.3 mph N/A   Clear
6:35 PM 65.3 °F - 15.8 °F 15% 29.90 in 10.0 mi West 15.0 mph 25.3 mph N/A   Clear
6:55 PM 64.6 °F - 16.2 °F 15% 29.91 in 10.0 mi WNW 12.7 mph 21.9 mph N/A   Clear
7:15 PM 63.5 °F - 15.8 °F 16% 29.92 in 10.0 mi WNW 11.5 mph 19.6 mph N/A   Clear
7:35 PM 61.9 °F - 15.8 °F 17% 29.93 in 10.0 mi WNW 8.1 mph - N/A   Clear
7:55 PM 61.2 °F - 15.8 °F 17% 29.93 in 10.0 mi WNW 6.9 mph - N/A   Clear
8:15 PM 60.1 °F - 15.8 °F 18% 29.94 in 10.0 mi WNW 6.9 mph - N/A   Clear
8:35 PM 59.9 °F - 15.8 °F 18% 29.95 in 10.0 mi West 5.8 mph - N/A   Clear
8:55 PM 58.6 °F - 16.7 °F 19% 29.96 in 10.0 mi West 4.6 mph - N/A   Clear
9:15 PM 57.6 °F - 18.0 °F 21% 29.97 in 10.0 mi WNW 6.9 mph - N/A   Clear
9:35 PM 56.5 °F - 18.7 °F 23% 29.99 in 10.0 mi West 4.6 mph - N/A   Clear
9:55 PM 56.7 °F - 19.2 °F 23% 29.99 in 10.0 mi WNW 8.1 mph - N/A   Clear
10:15 PM 56.3 °F - 19.8 °F 24% 30.00 in 10.0 mi WNW 6.9 mph - N/A   Clear
10:35 PM 55.4 °F - 20.1 °F 25% 30.00 in 10.0 mi NW 6.9 mph - N/A   Clear
11:15 PM 53.1 °F - 20.3 °F 28% 30.01 in 10.0 mi NNW 6.9 mph - N/A   Clear
11:35 PM 52.3 °F - 19.2 °F 27% 30.01 in 10.0 mi NNW 6.9 mph - N/A   Clear
11:55 PM 52.2 °F - 16.7 °F 25% 30.01 in 10.0 mi NW 5.8 mph - N/A   Clear